Weather History for Douglas, WY

Change the Weather History Date:

Tuesday, November 19, 2013

  Actual Average Record
Temperature  
Mean Temperature 45 °F 31 °F  
Max Temperature 59 °F 45 °F 70 °F (2007)
Min Temperature 31 °F 18 °F 5 °F (2011)
Degree Days  
Heating Degree Days 20 34  
Month to date heating degree days 508 556  
Since 1 July heating degree days 1326 1423  
Cooling Degree Days 0 0  
Month to date cooling degree days 0 0  
Year to date cooling degree days 739 486  
Moisture  
Dew Point 24 °F    
Average Humidity 40    
Maximum Humidity 53    
Minimum Humidity 27    
Precipitation  
Precipitation 0.00 in 0.01 in 0.01 in (2011)
Month to date precipitation 0.14 0.45  
Year to date precipitation 9.40 12.79  
Sea Level Pressure  
Sea Level Pressure 29.69 in    
Wind  
Wind Speed 12 mph (WSW)    
Max Wind Speed 37 mph    
Max Gust Speed 45 mph    
Visibility 10 miles    
Events      
T = Trace of Precipitation, MM = Missing Value Source: NWS Daily Summary

Daily Weather History Graph

Daily Weather History Graph

Search for Another Location

Airport:

Trip Planner

Search our weather history database for the weather conditions in past years. The results will help you decide how hot, cold, wet, or windy it might be!

Date:

Astronomy

Nov. 19, 2013 Rise Set
Actual Time 6:58 AM MST 4:34 PM MST
Civil Twilight 6:27 AM MST 5:05 PM MST
Nautical Twilight 5:53 AM MST 5:40 PM MST
Astronomical Twilight 5:19 AM MST 6:13 PM MST
Moon 6:27 PM MST (11/19) 8:40 AM MST (11/19)
Length of Visible Light 10h 37m
Length of Day
9h 36m
Waning Gibbous, 96% of the Moon is Illuminated
Nov 19
Waning Gibbous
Nov 25
Last Quarter
Dec 2
New
Dec 9
First Quarter
Dec 17
Full

Hourly Weather History & Observations

Time (MST) Temp. Windchill Dew Point Humidity Pressure Visibility Wind Dir Wind Speed Gust Speed Precip Events Conditions
12:53 AM 36.0 °F 32.1 °F 19.9 °F 52% 29.84 in 10.0 mi ESE 4.6 mph - N/A   Clear
1:53 AM 36.0 °F - 19.9 °F 52% 29.82 in 10.0 mi Calm Calm - N/A   Clear
2:53 AM 35.1 °F - 19.9 °F 54% 29.81 in 10.0 mi Calm Calm - N/A   Clear
3:53 AM 44.1 °F 41.5 °F 21.0 °F 40% 29.75 in 10.0 mi Variable 4.6 mph - N/A   Clear
4:53 AM 50.0 °F - 18.0 °F 28% 29.73 in 10.0 mi SSW 15.0 mph 23.0 mph N/A   Clear
5:53 AM 48.9 °F - 17.1 °F 28% 29.73 in 10.0 mi SW 3.5 mph - N/A   Clear
6:53 AM 48.9 °F - 19.9 °F 32% 29.75 in 10.0 mi Calm Calm - N/A   Clear
7:53 AM 50.0 °F - 21.9 °F 33% 29.75 in 10.0 mi SSW 12.7 mph - N/A   Clear
8:53 AM 51.1 °F - 21.9 °F 32% 29.73 in 10.0 mi SW 11.5 mph 21.9 mph N/A   Partly Cloudy
9:53 AM 51.1 °F - 23.0 °F 33% 29.69 in 10.0 mi WSW 10.4 mph - N/A   Clear
10:53 AM 53.1 °F - 25.0 °F 34% 29.69 in 10.0 mi West 11.5 mph - N/A   Clear
11:53 AM 55.0 °F - 26.1 °F 33% 29.66 in 10.0 mi WSW 13.8 mph - N/A   Clear
12:53 PM 57.9 °F - 25.0 °F 28% 29.62 in 10.0 mi West 29.9 mph 44.9 mph N/A   Clear
1:53 PM 55.9 °F - 25.0 °F 30% 29.61 in 10.0 mi West 29.9 mph 39.1 mph N/A   Clear
2:53 PM 57.0 °F - 25.0 °F 29% 29.61 in 10.0 mi West 28.8 mph 40.3 mph N/A   Clear
3:53 PM 52.0 °F - 27.0 °F 38% 29.62 in 10.0 mi West 21.9 mph 29.9 mph N/A   Clear
4:53 PM 48.0 °F - 27.0 °F 44% 29.64 in 10.0 mi West 10.4 mph - N/A   Clear
5:53 PM 44.1 °F - 27.0 °F 51% 29.68 in 10.0 mi Calm Calm - N/A   Clear
6:53 PM 46.9 °F - 28.9 °F 50% 29.65 in 10.0 mi West 12.7 mph - N/A   Clear
7:53 PM 46.0 °F 39.9 °F 28.9 °F 51% 29.65 in 10.0 mi West 13.8 mph 24.2 mph N/A   Clear
8:53 PM 46.0 °F 38.0 °F 28.9 °F 51% 29.64 in 10.0 mi West 21.9 mph 29.9 mph N/A   Clear
9:53 PM 46.9 °F - 28.9 °F 50% 29.65 in 10.0 mi West 20.7 mph 27.6 mph N/A   Clear
10:53 PM 44.1 °F 39.0 °F 28.0 °F 53% 29.67 in 10.0 mi West 9.2 mph - N/A   Clear
11:53 PM 44.1 °F 38.1 °F 28.9 °F 55% 29.66 in 10.0 mi West 11.5 mph - N/A   Clear